User: anonymous   Login
Location: Hertford
(51.8000°N, 0.0667°W)
Time: 02:01:32
(UTC+00:00)
Language:

NOSS 2-2 (C) - Orbit

View from above orbital plane
View from above orbital plane
View from above satellite
View from above satellite

Ground track
Ground track

The orbit data is extracted from the following two-line orbital elements,

1 21799U 91076C   20307.70823628 0.00000310  00000-0  56394-4 0    07
2 21799  63.3268 144.7001 0850455  40.2206 319.7794 13.41372139    00
Epoch (UTC): 02 November 2020 16:59:51
Eccentricity: 0.0850455
inclination: 63.3268°
perigee height: 468 km
apogee height: 1740 km
right ascension of ascending node: 144.7001°
argument of perigee: 40.2206°
revolutions per day: 13.41372139
mean anomaly at epoch: 319.7794°
orbit number at epoch: 0

The dashed part of the orbit path shows where the satellite is in the earth's shadow,  

DLR